COSMOS 2417 (GLONASS)

Satellite information

Favourite Embed

Satellite Type and Status

PAYLOADIN ORBIT

Key statistics

Satellite COSMOS 2417 (GLONASS) at a glance.

Uptime

7253

Days in orbit

Revolutions

≈ 2.1

Per day

Orbit

MEO

Medium Earth Orbit

Inclination

65.7

Latest

Satellite identification and parameters

Extended collection of information and parameters for COSMOS 2417 (GLONASS).

Object identification

Identified? True

Debris? False

Object name: COSMOS 2417 (GLONASS)

International designator: 2005-050C

Object number (NORAD): 28917

Object ID (CCSDS): 28917

Country: COMMONWEALTH OF INDEPENDENT STATES (CIS)

Current information (Y/N): Y

RCS size: LARGE

Orbital parameters

Period: 675.727 minutes

Inclination: 65.6994 deg

SMA: 25507.875 km

Apoapsis: 19164.086 km

Periapsis: 19095.394 km

RAAN: 323.7973 deg

Eccentricy: 0.00134648

Argument of periapsis: 103.202 deg

Mean anomaly: 260.4614 deg

Mean motion: 2.13103877 rev/day

Mean motion (dot): -0.00000004 rev/day2

B* drag term: 0.0 1/REarth

Two-line elements (TLE)

Creation date: Nov. 1, 2025, 7:40 p.m.

Reference frame: TEME

Reference center: EARTH

Epoch: Nov. 1, 2025, 11:46 a.m. UTC

TLE line 0: 0 COSMOS 2417 (GLONASS)

TLE line 1: 1 28917U 05050C 25305.49039669 -.00000004 00000-0 00000-0 0 9993

TLE line 2: 2 28917 65.6994 323.7973 0013465 103.2020 260.4614 2.13103877154385

Live tracking on map

Real-time ground track for satellite COSMOS 2417 (GLONASS).

In-orbit conjunctions

There are no conjunctions computed for COSMOS 2417 (GLONASS), at the moment. Check back to stay up to date, as we update our databases every day.

Go to all conjunctions

Associated space launch

GLONASS navigation satellites

COSMOS 2417 (GLONASS) was lifted into orbit during the mission ‘Proton | Uragan 87, Uragan-M 4 & 5’, on board a Proton space rocket.

The launch took place on Dec. 25, 2005, 5:07 a.m. from 81/24 (81P).

For more information about the launch, click the button.

Launch to space Proton | Uragan 87, Uragan-M 4 & 5
Proton | Uragan 87, Uragan-M 4 & 5

Agency: N/A

Status: Launch Successful

Launch date: Dec. 25, 2005, 5:07 a.m. UTC

Rocket: Proton

Launch pad: 81/24 (81P)

Location: Baikonur Cosmodrome, Republic of Kazakhstan

...

Latest news about this satellite

There are no fresh news available about this satellite. Check back as we update our databases every day.


Newsletter sign-up

Weekly statistics, charts and insights to help you stay on top of the space industry.